FW9226 Weather Reports


Display with metric or nautical units.
time (UTC)temp
F
wind
direction
speed
MPH
gust
MPH
rain 1hr
in
rain 24hr
in
rain mn
in
humidity
%
barometer
mb
20260904125004 55 142 0.0 3.0 0.00 0.00 0.00 81 1014.1
20260904124503 55 144 0.0 3.0 0.00 0.00 0.00 81 1014.2
20260904124005 55 236 0.0 2.0 0.00 0.00 0.00 80 1014.2
20260904123505 55 140 0.0 1.0 0.00 0.00 0.00 80 1014.1
20260904123005 55 134 0.0 2.0 0.00 0.00 0.00 80 1014.2
20260904122504 55 133 0.0 2.0 0.00 0.00 0.00 79 1014.1
20260904122004 55 127 0.0 1.0 0.00 0.00 0.00 79 1014.1
20260904121005 55 196 0.0 1.0 0.00 0.00 0.00 79 1014.2
20260904120504 55 196 0.0 1.0 0.00 0.00 0.00 79 1014.2
20260904120006 55 240 0.0 1.0 0.00 0.00 0.00 79 1014.2
20260904115503 55 145 0.0 1.0 0.00 0.00 0.00 79 1014.2
20260904115006 55 142 0.0 1.0 0.00 0.00 0.00 79 1014.2
20260904114503 55 141 0.0 1.0 0.00 0.00 0.00 79 1014.2
20260904114007 55 142 0.0 1.0 0.00 0.00 0.00 79 1014.2
20260904113004 55 200 0.0 0.0 0.00 0.00 0.00 79 1014.2
20260904112504 55 200 0.0 0.0 0.00 0.00 0.00 80 1014.1
20260904112004 55 200 0.0 0.0 0.00 0.00 0.00 80 1014.2
20260904111504 55 197 0.0 0.0 0.00 0.00 0.00 80 1014.2
20260904111003 55 197 0.0 0.0 0.00 0.00 0.00 80 1014.2
20260904110505 55 197 0.0 1.0 0.00 0.00 0.00 80 1014.2
20260904110008 55 297 0.0 1.0 0.00 0.00 0.00 80 1014.2
20260904105502 55 262 0.0 0.0 0.00 0.00 0.00 80 1014.2
20260904105005 55 262 0.0 0.0 0.00 0.00 0.00 80 1014.2
20260904104502 55 283 0.0 1.0 0.00 0.00 0.00 80 1014.2
20260904104005 55 283 0.0 1.0 0.00 0.00 0.00 81 1014.1
20260904103504 55 283 0.0 1.0 0.00 0.00 0.00 80 1014.2
20260904103004 55 284 0.0 0.0 0.00 0.00 0.00 80 1014.2
20260904102505 55 284 0.0 0.0 0.00 0.00 0.00 80 1014.2
20260904102004 55 284 0.0 0.0 0.00 0.00 0.00 80 1014.2
20260904101505 55 284 0.0 1.0 0.00 0.00 0.00 80 1014.1
20260904101005 55 284 0.0 1.0 0.00 0.00 0.00 80 1014.1
20260904100006 55 284 0.0 0.0 0.00 0.00 0.00 79 1014.1
20260904095504 55 284 0.0 0.0 0.00 0.00 0.00 79 1014.0
20260904095005 55 284 0.0 0.0 0.00 0.00 0.00 79 1013.9
20260904094502 55 284 0.0 0.0 0.00 0.00 0.00 79 1013.9
20260904094004 55 284 0.0 1.0 0.00 0.00 0.00 79 1013.8
20260904093503 55 283 0.0 1.0 0.00 0.00 0.00 79 1013.9
20260904093005 55 283 0.0 1.0 0.00 0.00 0.00 79 1014.0
20260904092505 55 284 0.0 0.0 0.00 0.00 0.00 79 1013.9
20260904091005 55 284 0.0 0.0 0.00 0.00 0.00 79 1013.9
20260904090504 55 284 0.0 0.0 0.00 0.00 0.00 79 1014.0
20260904090007 55 284 0.0 0.0 0.00 0.00 0.00 79 1014.0
20260904085502 55 284 0.0 1.0 0.00 0.00 0.00 79 1014.0
20260904085004 55 284 0.0 1.0 0.00 0.00 0.00 79 1014.0
20260904084503 55 284 0.0 0.0 0.00 0.00 0.00 79 1014.0
20260904084006 55 283 0.0 1.0 0.00 0.00 0.00 79 1014.1
20260904083503 55 284 0.0 2.0 0.00 0.00 0.00 80 1014.1
20260904083007 55 288 1.0 2.0 0.00 0.00 0.00 79 1014.1
20260904081504 57 269 0.0 1.0 0.00 0.00 0.00 73 1014.1
20260904081005 57 134 0.0 1.0 0.00 0.00 0.00 68 1014.0
20260904080503 57 129 0.0 1.0 0.00 0.00 0.00 65 1014.1
20260904080007 58 150 0.0 0.0 0.00 0.00 0.00 64 1014.1
20260904075505 58 150 0.0 0.0 0.00 0.00 0.00 64 1014.2
20260904075004 58 150 0.0 0.0 0.00 0.00 0.00 63 1014.1
20260904074504 58 149 0.0 0.0 0.00 0.00 0.00 64 1014.0
20260904073503 58 155 0.0 0.0 0.00 0.00 0.00 63 1014.0
20260904073003 58 155 0.0 0.0 0.00 0.00 0.00 63 1014.1
20260904072504 58 155 0.0 1.0 0.00 0.00 0.00 63 1014.1
20260904072002 58 155 0.0 2.0 0.00 0.00 0.00 63 1014.1
20260904071504 58 160 0.0 2.0 0.00 0.00 0.00 62 1014.1
20260904071002 58 263 0.0 1.0 0.00 0.00 0.00 63 1014.2
20260904070502 58 263 0.0 1.0 0.00 0.00 0.00 63 1014.2
20260904070013 58 263 0.0 1.0 0.00 0.00 0.00 63 1014.2
20260904065505 58 136 0.0 1.0 0.00 0.00 0.00 62 1014.2
20260904065006 57 136 0.0 2.0 0.00 0.00 0.00 63 1014.2
20260904064504 57 136 0.0 2.0 0.00 0.00 0.00 64 1014.3
20260904064006 57 205 0.0 0.0 0.00 0.00 0.00 64 1014.3
20260904063505 57 205 0.0 0.0 0.00 0.00 0.00 65 1014.3
20260904063005 57 205 0.0 0.0 0.00 0.00 0.00 66 1014.3
20260904062505 57 194 0.0 1.0 0.00 0.00 0.00 66 1014.4
20260904061502 57 204 0.0 1.0 0.00 0.00 0.00 67 1014.4
20260904060503 57 284 0.0 1.0 0.00 0.00 0.00 70 1014.5
20260904060008 57 283 0.0 1.0 0.00 0.00 0.00 69 1014.5
20260904055506 57 320 0.0 2.0 0.00 0.00 0.00 72 1014.5
20260904055006 56 321 0.0 2.0 0.00 0.00 0.00 71 1014.7
20260904054504 56 137 0.0 0.0 0.00 0.00 0.00 73 1014.7
20260904053506 56 137 0.0 1.0 0.00 0.00 0.00 74 1014.7
20260904053006 56 137 0.0 1.0 0.00 0.00 0.00 75 1014.8
20260904052506 56 137 0.0 1.0 0.00 0.00 0.00 76 1014.9
20260904052005 56 137 0.0 0.0 0.00 0.00 0.00 76 1014.8
20260904051007 56 137 0.0 0.0 0.00 0.00 0.00 76 1015.0
20260904050008 56 137 0.0 0.0 0.00 0.00 0.00 76 1015.1
20260904045506 56 137 0.0 0.0 0.00 0.00 0.00 76 1015.0
20260904045005 56 137 0.0 0.0 0.00 0.00 0.00 76 1015.0
20260904044505 56 137 0.0 0.0 0.00 0.00 0.00 75 1015.0
20260904043005 56 137 0.0 0.0 0.00 0.00 0.00 76 1015.0
20260904042006 56 137 0.0 0.0 0.00 0.00 0.00 76 1015.0
20260904041505 55 137 0.0 0.0 0.00 0.00 0.00 76 1014.9
20260904041007 56 137 0.0 0.0 0.00 0.00 0.00 76 1014.9
20260904040503 56 137 0.0 0.0 0.00 0.00 0.00 76 1014.8
20260904040003 56 137 0.0 0.0 0.00 0.00 0.00 76 1014.8
20260904035503 55 137 0.0 0.0 0.00 0.00 0.00 76 1014.7
20260904034505 55 137 0.0 0.0 0.00 0.00 0.00 76 1014.7
20260904034006 56 137 0.0 0.0 0.00 0.00 0.00 77 1014.6
20260904033505 56 137 0.0 0.0 0.00 0.00 0.00 76 1014.7
20260904033005 56 137 0.0 0.0 0.00 0.00 0.00 76 1014.7
20260904032504 56 137 0.0 0.0 0.00 0.00 0.00 75 1014.6
20260904032004 57 137 0.0 0.0 0.00 0.00 0.00 75 1014.6
20260904031504 57 137 0.0 0.0 0.00 0.00 0.00 74 1014.7
20260904031004 57 137 0.0 0.0 0.00 0.00 0.00 74 1014.6
20260904030503 58 137 0.0 0.0 0.00 0.00 0.00 73 1014.6
20260904030007 58 137 0.0 0.0 0.00 0.00 0.00 72 1014.6
20260904025505 58 137 0.0 0.0 0.00 0.00 0.00 72 1014.7
20260904025005 58 137 0.0 1.0 0.00 0.00 0.00 71 1014.8
20260904024504 58 137 0.0 1.0 0.00 0.00 0.00 71 1014.8
20260904024006 58 137 0.0 1.0 0.00 0.00 0.00 70 1014.8
20260904023504 58 83 0.0 2.0 0.00 0.00 0.00 70 1014.8
20260904023005 59 124 0.0 2.0 0.00 0.00 0.00 69 1014.8
20260904022506 59 72 0.0 2.0 0.00 0.00 0.00 66 1014.9
20260904022005 59 72 0.0 1.0 0.00 0.00 0.00 64 1014.8
20260904021505 60 122 0.0 2.0 0.00 0.00 0.00 62 1014.7
20260904020003 61 60 0.0 3.0 0.00 0.00 0.00 57 1014.8
20260904015504 61 124 0.0 2.0 0.00 0.00 0.00 54 1014.9
20260904015006 62 156 0.0 1.0 0.00 0.00 0.00 52 1014.8
20260904014502 62 123 0.0 2.0 0.00 0.00 0.00 48 1014.9
20260904014004 63 122 1.0 3.0 0.00 0.00 0.00 48 1015.0
20260904013504 63 269 1.0 5.0 0.00 0.00 0.00 45 1015.0
20260904013004 63 200 0.0 3.0 0.00 0.00 0.00 45 1015.0
20260904012503 64 115 0.0 3.0 0.00 0.00 0.00 45 1015.1
20260904011502 64 228 1.0 6.0 0.00 0.00 0.00 44 1015.0
20260904011003 64 248 1.0 6.0 0.00 0.00 0.00 44 1015.1
20260904010506 64 109 1.0 5.0 0.00 0.00 0.00 44 1015.1
20260904010007 64 222 2.0 7.0 0.00 0.00 0.00 43 1015.1
20260904005504 65 120 1.0 8.0 0.00 0.00 0.00 45 1015.1
20260904004504 65 155 1.0 6.0 0.00 0.00 0.00 46 1015.2
20260904003006 66 160 2.0 10.0 0.00 0.00 0.00 46 1015.2
20260904002503 66 243 2.0 8.0 0.00 0.00 0.00 47 1015.2
20260904002007 66 160 2.0 5.0 0.00 0.00 0.00 46 1015.2
20260904001504 66 214 1.0 5.0 0.00 0.00 0.00 46 1015.2
20260904001005 66 309 1.0 3.0 0.00 0.00 0.00 45 1015.4
20260904000504 66 254 2.0 5.0 0.00 0.00 0.00 45 1015.4
20260904000008 66 92 2.0 7.0 0.00 0.00 0.00 46 1015.3
20260903235501 66 250 1.0 7.0 0.00 0.00 0.00 47 1015.3
20260903235005 67 206 1.0 5.0 0.00 0.00 0.00 46 1015.4
20260903234504 67 146 1.0 5.0 0.00 0.00 0.00 46 1015.6
20260903234005 67 218 0.0 2.0 0.00 0.00 0.00 46 1015.6
20260903233505 67 232 2.0 4.0 0.00 0.00 0.00 46 1015.7
20260903233004 67 84 2.0 7.0 0.00 0.00 0.00 46 1015.7
20260903232505 68 158 2.0 8.0 0.00 0.00 0.00 46 1015.8
20260903231504 67 167 2.0 11.0 0.00 0.00 0.00 45 1015.9
20260903231006 68 89 2.0 5.0 0.00 0.00 0.00 46 1015.8
20260903230504 68 245 2.0 5.0 0.00 0.00 0.00 45 1015.8
20260903230003 68 108 3.0 7.0 0.00 0.00 0.00 46 1015.8
20260903225505 68 134 3.0 9.0 0.00 0.00 0.00 45 1016.0
20260903225005 68 161 1.0 9.0 0.00 0.00 0.00 45 1016.0
20260903224504 68 304 2.0 6.0 0.00 0.00 0.00 46 1016.1
20260903224005 68 143 2.0 6.0 0.00 0.00 0.00 45 1016.0
20260903223504 68 103 1.0 6.0 0.00 0.00 0.00 46 1016.1
20260903222506 68 203 2.0 11.0 0.00 0.00 0.00 46 1016.2
20260903222006 68 128 2.0 11.0 0.00 0.00 0.00 46 1016.2
20260903221504 69 236 2.0 5.0 0.00 0.00 0.00 46 1016.2
20260903221004 68 243 2.0 7.0 0.00 0.00 0.00 46 1016.3
20260903220503 69 112 2.0 7.0 0.00 0.00 0.00 44 1016.3
20260903220011 69 248 2.0 7.0 0.00 0.00 0.00 46 1016.3
20260903215504 69 201 2.0 9.0 0.00 0.00 0.00 47 1016.4
20260903214507 68 233 3.0 7.0 0.00 0.00 0.00 45 1016.3
20260903213504 68 212 3.0 8.0 0.00 0.00 0.00 46 1016.3
20260903213008 68 137 3.0 6.0 0.00 0.00 0.00 47 1016.3
20260903212502 68 165 2.0 6.0 0.00 0.00 0.00 47 1016.3
20260903212005 68 226 2.0 7.0 0.00 0.00 0.00 46 1016.3
20260903211504 69 285 3.0 9.0 0.00 0.00 0.00 45 1016.3
20260903211005 68 226 3.0 9.0 0.00 0.00 0.00 47 1016.2
20260903210502 68 262 3.0 8.0 0.00 0.00 0.00 46 1016.3
20260903210010 68 227 3.0 10.0 0.00 0.00 0.00 45 1016.2
20260903205009 69 246 3.0 9.0 0.00 0.00 0.00 42 1016.3
20260903204459 69 279 3.0 11.0 0.00 0.00 0.00 41 1016.3
20260903204004 68 138 3.0 11.0 0.00 0.00 0.00 43 1016.3
20260903203007 70 114 2.0 8.0 0.00 0.00 0.00 41 1016.2
20260903202503 70 205 2.0 10.0 0.00 0.00 0.00 40 1016.4
20260903202009 70 251 2.0 10.0 0.00 0.00 0.00 40 1016.4
20260903201503 70 217 2.0 9.0 0.00 0.00 0.00 41 1016.5
20260903201004 70 219 2.0 9.0 0.00 0.00 0.00 40 1016.6
20260903200008 69 248 2.0 7.0 0.00 0.00 0.00 40 1016.5
20260903195500 69 243 2.0 7.0 0.00 0.00 0.00 41 1016.6
20260903195005 69 242 2.0 8.0 0.00 0.00 0.00 43 1016.5
20260903194504 69 139 3.0 8.0 0.00 0.00 0.00 43 1016.5
20260903194011 70 127 3.0 9.0 0.00 0.00 0.00 42 1016.5
20260903192502 70 253 3.0 8.0 0.00 0.00 0.00 43 1016.5
20260903192004 70 141 2.0 7.0 0.00 0.00 0.00 42 1016.6
20260903191505 70 226 2.0 6.0 0.00 0.00 0.00 41 1016.8
20260903190504 70 214 2.0 6.0 0.00 0.00 0.00 42 1017.0
20260903190006 70 128 2.0 6.0 0.00 0.00 0.00 42 1017.0
20260903185505 70 238 2.0 6.0 0.00 0.00 0.00 41 1017.0
20260903185008 70 134 2.0 6.0 0.00 0.00 0.00 42 1017.1
20260903184504 69 211 2.0 7.0 0.00 0.00 0.00 44 1017.0
20260903184009 69 101 2.0 9.0 0.00 0.00 0.00 43 1017.0
20260903183501 69 56 2.0 9.0 0.00 0.00 0.00 45 1017.1
20260903183006 69 202 2.0 8.0 0.00 0.00 0.00 45 1017.1
20260903182506 68 168 2.0 7.0 0.00 0.00 0.00 46 1017.2
20260903182004 67 139 3.0 10.0 0.00 0.00 0.00 46 1017.1
20260903181005 67 63 2.0 8.0 0.00 0.00 0.00 47 1017.1
20260903180504 68 146 2.0 6.0 0.00 0.00 0.00 47 1017.1
20260903180008 67 134 2.0 7.0 0.00 0.00 0.00 48 1017.1
20260903175500 67 104 1.0 7.0 0.00 0.00 0.00 48 1017.1
20260903175003 67 119 1.0 5.0 0.00 0.00 0.00 49 1016.9
20260903174503 66 155 2.0 5.0 0.00 0.00 0.00 50 1017.0
20260903174004 66 116 2.0 5.0 0.00 0.00 0.00 49 1017.0
20260903173504 66 96 2.0 8.0 0.00 0.00 0.00 50 1017.0
20260903172459 66 185 2.0 6.0 0.00 0.00 0.00 49 1017.2
20260903172005 65 47 2.0 6.0 0.00 0.00 0.00 52 1017.2
20260903171504 65 143 2.0 6.0 0.00 0.00 0.00 49 1017.3
20260903171005 65 214 1.0 4.0 0.00 0.00 0.00 51 1017.3
20260903170503 64 183 1.0 6.0 0.00 0.00 0.00 53 1017.4
20260903170003 64 123 1.0 6.0 0.00 0.00 0.00 53 1017.4
20260903165502 64 277 2.0 5.0 0.00 0.00 0.00 54 1017.4
20260903165004 64 158 2.0 5.0 0.00 0.00 0.00 54 1017.4
20260903164503 64 221 2.0 9.0 0.00 0.00 0.00 54 1017.4
20260903164002 64 170 2.0 9.0 0.00 0.00 0.00 55 1017.4
20260903163503 63 131 2.0 4.0 0.00 0.00 0.00 56 1017.4
20260903163004 63 184 2.0 4.0 0.00 0.00 0.00 56 1017.4
20260903162504 62 233 2.0 6.0 0.00 0.00 0.00 57 1017.4
20260903160504 61 126 1.0 4.0 0.00 0.00 0.00 59 1017.5
20260903160008 60 150 1.0 3.0 0.00 0.00 0.00 59 1017.4
20260903155506 59 136 1.0 2.0 0.00 0.00 0.00 61 1017.5
20260903155005 58 207 0.0 2.0 0.00 0.00 0.00 62 1017.6
20260903154503 58 115 1.0 2.0 0.00 0.00 0.00 63 1017.5
20260903154004 57 145 1.0 2.0 0.00 0.00 0.00 64 1017.5
20260903153503 56 146 0.0 2.0 0.00 0.00 0.00 64 1017.6
20260903153005 56 155 0.0 2.0 0.00 0.00 0.00 66 1017.6
20260903152004 55 38 0.0 1.0 0.00 0.00 0.00 66 1017.6
20260903151003 54 325 0.0 0.0 0.00 0.00 0.00 66 1017.6
20260903150501 54 325 0.0 0.0 0.00 0.00 0.00 65 1017.6
20260903150001 54 325 0.0 0.0 0.00 0.00 0.00 64 1017.5
20260903145503 54 325 0.0 0.0 0.00 0.00 0.00 64 1017.5
20260903145004 54 325 0.0 0.0 0.00 0.00 0.00 63 1017.5
20260903144005 54 325 0.0 0.0 0.00 0.00 0.00 61 1017.4
20260903143000 54 322 0.0 0.0 0.00 0.00 0.00 62 1017.4
20260903142504 53 322 0.0 1.0 0.00 0.00 0.00 63 1017.4
20260903142006 52 32 0.0 1.0 0.00 0.00 0.00 65 1017.4
20260903141503 51 32 0.0 1.0 0.00 0.00 0.00 67 1017.3
20260903141004 50 32 0.0 1.0 0.00 0.00 0.00 67 1017.3
20260903140502 50 280 0.0 0.0 0.00 0.00 0.00 67 1017.2
20260903140008 50 280 0.0 1.0 0.00 0.00 0.00 67 1017.2
20260903135004 50 281 0.0 1.0 0.00 0.00 0.00 67 1017.1
20260903134459 50 281 0.0 1.0 0.00 0.00 0.00 67 1017.0
20260903134003 50 281 0.0 1.0 0.00 0.00 0.00 68 1017.0
20260903133500 50 281 0.0 0.0 0.00 0.00 0.00 68 1016.9
20260903133005 50 281 0.0 1.0 0.00 0.00 0.00 68 1017.0
20260903132004 51 280 0.0 0.0 0.00 0.00 0.00 68 1016.9
20260903131503 51 281 0.0 1.0 0.00 0.00 0.00 67 1017.0
20260903131003 51 280 0.0 1.0 0.00 0.00 0.00 68 1016.9
20260903130506 51 281 0.0 1.0 0.00 0.00 0.00 68 1016.9
20260903130006 50 280 0.0 0.0 0.00 0.00 0.00 68 1016.9